Butler, PA

8:07 PM EST on December 12, 2019 (GMT -0500)
Butler County-Scholter

Weather History for KBTP - June, 2019

Change the Weather History Date:

Saturday, June 1, 2019

  Actual Average Record
Temperature  
Mean Temperature 66 °F -  
Max Temperature 77 °F 68 °F 87 °F (1970)
Min Temperature 55 °F 50 °F 39 °F (1981)
Cooling Degree Days 1    
Growing Degree Days 16 (Base 50)    
Moisture  
Dew Point 59 °F    
Average Humidity 82    
Maximum Humidity 97    
Minimum Humidity 62    
Precipitation  
Precipitation 0.13 in - - ()
Sea Level Pressure  
Sea Level Pressure 29.88 in    
Wind  
Wind Speed 4 mph (SSW)    
Max Wind Speed 16 mph    
Max Gust Speed 29 mph    
Visibility 9 miles    
Events Rain , Thunderstorm    
Averages and records for this station are not official NWS values.
T = Trace of Precipitation, MM = Missing Value Source: NWS Daily Summary

Daily Weather History Graph

Daily Weather History Graph

Search for Another Location

Airport or City:

Astronomy

Jun. 01, 2019 Rise Set
Actual Time 5:50 AM EDT 8:44 PM EDT
Civil Twilight 5:18 AM EDT 9:17 PM EDT
Nautical Twilight 4:36 AM EDT 9:59 PM EDT
Astronomical Twilight 3:49 AM EDT 10:46 PM EDT
Moon 4:55 AM EDT (6/1) 6:55 PM EDT (6/1)
Length of Visible Light 15h 59m
Length of Day
14h 54m
Waning Crescent, 4% of the Moon is Illuminated
Jun 1
Waning Crescent
Jun 3
New
Jun 10
First Quarter
Jun 17
Full
Jun 25
Last Quarter

Hourly Weather History & Observations

Time (EDT) Temp. Dew Point Humidity Pressure Visibility Wind Dir Wind Speed Gust Speed Precip Events Conditions
12:56 AM 57.9 °F 57.0 °F 97% 29.88 in 7.0 mi Calm Calm - N/A   Clear
1:56 AM 57.0 °F 55.9 °F 96% 29.89 in 10.0 mi Calm Calm - 0.01 in   Clear
2:56 AM 55.9 °F 55.0 °F 97% 29.90 in 10.0 mi Calm Calm - 0.01 in   Clear
3:56 AM 55.9 °F 55.0 °F 97% 29.88 in 9.0 mi Calm Calm - N/A   Clear
4:56 AM 57.0 °F 55.0 °F 93% 29.89 in 10.0 mi South 3.5 mph - 0.01 in   Clear
5:56 AM 55.9 °F 55.0 °F 97% 29.91 in 9.0 mi Calm Calm - 0.01 in   Clear
6:56 AM 57.9 °F 55.9 °F 93% 29.90 in 9.0 mi South 4.6 mph - N/A   Clear
7:56 AM 60.1 °F 57.9 °F 93% 29.91 in 9.0 mi South 3.5 mph - 0.01 in   Clear
8:56 AM 64.0 °F 61.0 °F 90% 29.92 in 10.0 mi SSW 5.8 mph - 0.01 in   Clear
9:56 AM 68.0 °F 62.1 °F 81% 29.91 in 10.0 mi SSW 5.8 mph - N/A   Clear
10:56 AM 70.0 °F 63.0 °F 78% 29.90 in 10.0 mi South 6.9 mph - 0.01 in   Clear
11:56 AM 73.0 °F 63.0 °F 71% 29.89 in 10.0 mi SSW 9.2 mph - 0.01 in   Clear
12:56 PM 75.0 °F 64.0 °F 69% 29.88 in 10.0 mi WSW 10.4 mph - N/A   Clear
1:56 PM 75.9 °F 63.0 °F 64% 29.86 in 10.0 mi WSW 9.2 mph - 0.01 in   Scattered Clouds
2:56 PM 77.0 °F 63.0 °F 62% 29.83 in 10.0 mi SW 10.4 mph - 0.01 in   Partly Cloudy
3:56 PM 77.0 °F 63.0 °F 62% 29.81 in 10.0 mi SSW 12.7 mph - N/A   Partly Cloudy
4:56 PM 75.0 °F 61.0 °F 62% 29.83 in 10.0 mi WSW 10.4 mph 18.4 mph 0.01 in   Clear
5:56 PM 75.0 °F 62.1 °F 64% 29.83 in 10.0 mi SW 12.7 mph - 0.01 in   Scattered Clouds
6:56 PM 73.9 °F 61.0 °F 64% 29.83 in 10.0 mi SW 6.9 mph - N/A   Clear
7:56 PM 70.0 °F 57.0 °F 63% 29.89 in 10.0 mi North 16.1 mph 28.8 mph 0.01 in   Mostly Cloudy
8:56 PM 60.1 °F 57.0 °F 90% 29.90 in 8.0 mi NE 9.2 mph - N/A Rain Light Rain
9:56 PM 60.1 °F 57.9 °F 93% 29.88 in 10.0 mi East 5.8 mph - N/A Rain Light Rain
10:56 PM 59.0 °F 57.9 °F 96% 29.88 in 6.0 mi Calm Calm - N/A Rain Light Rain
11:35 PM 59.0 °F 57.2 °F 94% 29.86 in 7.0 mi Variable 4.6 mph - 0.00 in Rain , Thunderstorm Light Rain
11:56 PM 59.0 °F 57.9 °F 96% 29.86 in 10.0 mi SSE 3.5 mph - 0.00 in   Overcast